Los Angeles, CA (90001)

11:43 AM PDT on September 01, 2015 (GMT -0700)
Natural History Museum | | Change Station
CLOSE
Current Station
Personal Weather Station
Location: Los Angeles, CA
Elevation: 207 ft
Nearby Weather Stations

Elev 207 ft 34.02 °N, 118.29 °W | Updated 2 seconds ago

Overcast
Overcast
81.3 °F
Feels Like 82 °F
N
1.9
Wind Variable Wind from North
Gusts 4.0 mph

Today
High -- | Low -- °F
--% Chance of Precip.
Yesterday
High -- | Low -- °F
Precip. -- in
6:26 AM 7:18 PM
Waning Gibbous, 87% visible
Pressure 29.92 in
Visibility 10.0 miles
Clouds Few 3200 ft
Heat Index 82 °F
Dew Point 61 °F
Humidity 51%
Rainfall 0.00 in
Snow Depth Not available.
UV 7 out of 12
Pollen 7.20 out of 12
Air Quality Not available.
Flu Activity Not available.
METAR KCQT 011747Z AUTO VRB05KT 10SM FEW032 26/14 A2993 RMK AO2 SLP132 T02560144 10256 20217 53003
Pressure 29.92 in
Visibility 10.0 miles
Clouds Few 3200 ft
Heat Index 82 °F
Dew Point 61 °F
Humidity 51%
Rainfall 0.00 in
Snow Depth Not available.
UV 7 out of 12
Pollen 7.20 out of 12
Air Quality Not available.
Flu Activity Not available.
METAR KCQT 011747Z AUTO VRB05KT 10SM FEW032 26/14 A2993 RMK AO2 SLP132 T02560144 10256 20217 53003

10-Day Weather Forecast

×

Almanac

Astronomy

Sep. 01, 2015 Rise Set
Actual Time
Civil Twilight
Nautical Twilight
Astronomical Twilight
Moon
Length of Visible Light
Length of Day
Tomorrow will be .
, % of the Moon is Illuminated

Today's Extremes

State Highs State Lows

Community

WunderPhotos

Upload Photos

1,851,593 photos uploaded!

WunderBlogs® & News

Nearby

Air Quality

  Air Quality AQ Index Pollutant
Not available.

Snow Depth

Station Depth Elevation

Earthquake Activity

City Distance Mag. Time & Date
Minimum magnitude displayed is 2.5.

Coastal Water Temperatures

Place Temperature

Stations

Nearby Weather Stations

Station Location Temp. Windchill Dew Point Humidity Wind Precip. Elev Updated Type